[[{"header":{"parameterUnit":"m.s-1","parameterCategory":1,"la1":30.2992,"la2":30.254,"lo1":-89.0895,"lo2":-89.0443,"dy":0.0025,"dx":0.0025,"nx":19,"ny":19,"refTime":"2026-05-10T09:00:00:Z","depth":0,"parameterNumber":2,"parameterNumberName":"U-component_of_WINDS"},"data":[0,0,0,-3.5671,-3.5672,-3.5675,-3.5675,-3.5719,-3.5719,0,0,0,0,0,0,0,0,0,0,0,-3.5694,-3.5695,-3.5671,-3.5672,-3.5675,-3.5675,-3.5718,-3.5719,0,0,0,0,0,0,0,0,0,0,0,-3.5693,-3.5695,-3.5696,-3.5672,-3.5675,-3.5675,-3.5718,-3.5702,0,0,0,0,0,0,0,0,0,0,-3.5692,-3.5736,-3.5694,-3.5696,-3.5672,-3.5675,-3.5675,-3.5701,-3.5703,-3.5734,0,-3.5767,0,-3.5744,-3.5725,-3.5725,0,0,0,-3.5655,-3.5734,-3.5713,-3.5696,-3.5673,-3.5675,-3.5669,-3.5701,-3.5704,-3.5738,-3.5767,-3.5768,-3.5745,-3.5725,-3.5726,-3.596,-3.5962,0,0,-3.5655,-3.5707,-3.5712,-3.5716,-3.5718,-3.5669,-3.5669,-3.5703,-3.5739,-3.5767,-3.5768,-3.5746,-3.5726,-3.5726,-3.5958,-3.596,0,0,0,-3.5666,-3.5708,-3.5686,-3.5716,-3.5713,-3.5669,-3.567,-3.5737,-3.5726,-3.5768,-3.5746,-3.5726,-3.5727,-3.5956,-3.5959,-3.6105,0,0,0,-3.5665,-3.5714,-3.5686,-3.5719,-3.5713,-3.5725,-3.5705,-3.5723,-3.5725,-3.5746,-3.5726,-3.5728,-3.5954,-3.5957,-3.6096,-3.6165,0,0,0,-3.5686,-3.5716,-3.5725,-3.5722,-3.5725,-3.5723,-3.5713,-3.5722,-3.5713,-3.5725,-3.5728,-3.5952,-3.5957,-3.6088,-3.6152,-3.6243,0,0,0,-3.5723,-3.5855,-3.5728,-3.5866,-3.5725,-3.5813,-3.5712,-3.5775,-3.5803,-3.5727,-3.5954,-3.5958,-3.6086,-3.6145,-3.6235,-3.633,-3.6374,0,0,-3.5919,-3.588,-3.5957,-3.5843,-3.5967,-3.5808,-3.5953,-3.5929,-3.5882,-3.5937,-3.5942,-3.6099,-3.6152,-3.6241,-3.6599,-3.6635,0,0,0,-3.6037,-3.6093,-3.6114,-3.6142,-3.6126,-3.6118,-3.6066,-3.6057,-3.61,-3.5921,-3.6153,-3.6183,-3.6234,-3.6277,-3.6307,-3.6347,-3.598,-3.598,-3.5979,-3.639,-3.6322,-3.6444,-3.6377,-3.6406,-3.635,-3.6367,-3.6345,-3.6269,-3.6325,-3.6342,-3.6567,-3.6619,-3.6641,-3.6685,-3.6385,-3.6385,-3.6386,-3.6386,-3.6671,-3.674,-3.6634,-3.6715,-3.6642,-3.671,-3.6661,-3.6604,-3.6657,-3.6549,-3.659,-3.648,-3.6682,-3.6716,-3.6396,-3.6395,-3.6393,-3.6392,-3.6392,-3.6897,-3.6918,-3.6903,-3.6937,-3.697,-3.6896,-3.6952,-3.6883,-3.682,-3.686,-3.6871,-3.6868,-3.6858,-3.687,-3.687,-3.6871,-3.6872,-3.6872,-3.6873,-3.7138,-3.7116,-3.7171,-3.7164,-3.7172,-3.7176,-3.712,-3.7127,-3.7118,-3.7063,-3.7063,-3.6983,-3.6714,-3.6649,-3.6885,-3.6883,-3.6881,-3.688,-3.6879,-3.7451,-3.7369,-3.7454,-3.7463,-3.7448,-3.7487,-3.7397,-3.7418,-3.7413,-3.7443,-3.7352,-3.7164,-3.7121,-3.7096,-3.7042,-3.7366,-3.7366,-3.7366,-3.7366,-3.7643,-3.7613,-3.7684,-3.7703,-3.7713,-3.764,-3.7739,-3.7697,-3.7641,-3.7634,-3.7577,-3.7499,-3.7477,-3.7446,-3.7414,-3.7362,-3.776,-3.7761,-3.7761,-3.7833,-3.78,-3.7898,-3.784,-3.7823,-3.7811,-3.7902,-3.7929,-3.7847,-3.7775,-3.7628,-3.7611,-3.7484,-3.7446,-3.7373,-3.7325,-3.7229,0,0]},{"header":{"parameterUnit":"m.s-1","parameterCategory":1,"la1":30.2992,"la2":30.254,"lo1":-89.0895,"lo2":-89.0443,"dy":0.0025,"dx":0.0025,"nx":19,"ny":19,"refTime":"2026-05-10T09:00:00:Z","depth":0,"parameterNumber":3,"parameterNumberName":"V-component_of_WINDS"},"data":[0,0,0,-3.49,-3.4903,-3.5034,-3.5034,-3.5207,-3.5209,0,0,0,0,0,0,0,0,0,0,0,-3.4864,-3.4865,-3.49,-3.4903,-3.5034,-3.5034,-3.5207,-3.5209,0,0,0,0,0,0,0,0,0,0,0,-3.4863,-3.4865,-3.4866,-3.4903,-3.5034,-3.5034,-3.5207,-3.5106,0,0,0,0,0,0,0,0,0,0,-3.4978,-3.4947,-3.4864,-3.4866,-3.4904,-3.5034,-3.5035,-3.5101,-3.5112,-3.515,0,-3.5184,0,-3.5199,-3.5221,-3.5221,0,0,0,-3.4901,-3.4938,-3.4971,-3.4866,-3.4905,-3.5033,-3.4974,-3.5107,-3.512,-3.5165,-3.5186,-3.5193,-3.5202,-3.5222,-3.5223,-3.5445,-3.5446,0,0,-3.4894,-3.4889,-3.4962,-3.4979,-3.4958,-3.497,-3.4978,-3.5115,-3.5138,-3.5187,-3.5197,-3.5205,-3.5223,-3.5224,-3.5444,-3.5445,0,0,0,-3.4874,-3.4884,-3.4913,-3.4972,-3.4995,-3.4974,-3.4983,-3.5132,-3.5142,-3.5198,-3.5207,-3.5224,-3.5226,-3.5443,-3.5444,-3.5495,0,0,0,-3.487,-3.4873,-3.491,-3.4909,-3.4993,-3.5065,-3.4998,-3.5132,-3.5148,-3.5206,-3.5224,-3.5228,-3.5442,-3.5444,-3.5491,-3.5519,0,0,0,-3.4854,-3.4871,-3.4891,-3.4908,-3.4964,-3.5063,-3.5081,-3.5136,-3.5153,-3.5222,-3.5228,-3.5441,-3.5443,-3.5487,-3.5513,-3.5576,0,0,0,-3.4836,-3.4934,-3.4891,-3.5004,-3.4963,-3.5093,-3.508,-3.5177,-3.5242,-3.5225,-3.5442,-3.5444,-3.5486,-3.551,-3.5572,-3.5627,-3.565,0,0,-3.4957,-3.4948,-3.5015,-3.498,-3.5117,-3.5073,-3.5217,-3.5281,-3.5293,-3.5394,-3.5399,-3.5492,-3.5513,-3.5575,-3.5779,-3.5797,0,0,0,-3.5051,-3.5099,-3.5136,-3.5197,-3.5248,-3.5294,-3.5336,-3.536,-3.5445,-3.5343,-3.5532,-3.5545,-3.5581,-3.5608,-3.5623,-3.5655,-3.5456,-3.5456,-3.5456,-3.5215,-3.5223,-3.5334,-3.5358,-3.5418,-3.546,-3.5509,-3.5548,-3.554,-3.5584,-3.5614,-3.5737,-3.5768,-3.5779,-3.5812,-3.5645,-3.5645,-3.5645,-3.5645,-3.5392,-3.546,-3.5447,-3.5549,-3.5558,-3.5644,-3.5689,-3.568,-3.5762,-3.5715,-3.5748,-3.5696,-3.5799,-3.5828,-3.5649,-3.5648,-3.5648,-3.5647,-3.5647,-3.5499,-3.5534,-3.556,-3.5649,-3.5716,-3.5738,-3.5816,-3.5822,-3.5828,-3.586,-3.5892,-3.5891,-3.589,-3.5875,-3.5875,-3.5876,-3.5876,-3.5876,-3.5877,-3.56,-3.5629,-3.5694,-3.5756,-3.5795,-3.5848,-3.5891,-3.5931,-3.5975,-3.5973,-3.5974,-3.5961,-3.5807,-3.5768,-3.5883,-3.5882,-3.5881,-3.5881,-3.588,-3.5775,-3.5737,-3.5837,-3.5877,-3.595,-3.6016,-3.6022,-3.6101,-3.6134,-3.6173,-3.6154,-3.6039,-3.6031,-3.6019,-3.5987,-3.6152,-3.6152,-3.6152,-3.6152,-3.5866,-3.5862,-3.5966,-3.6029,-3.6091,-3.6106,-3.622,-3.6255,-3.6285,-3.6306,-3.6284,-3.6241,-3.6229,-3.6228,-3.6212,-3.6181,-3.6392,-3.6392,-3.6393,-3.5974,-3.5976,-3.6072,-3.61,-3.6157,-3.6206,-3.6314,-3.6387,-3.6413,-3.6402,-3.6323,-3.6313,-3.6245,-3.6222,-3.621,-3.6184,-3.6129,0,0]}]]